This is the latest recevied weather packets stored in our database for station/object NI4CE-11. If no packets are shown the sender has not sent any weather packets the latest 10 day(s).
| Time | Temp. | Humidity | Pressure | Rain* | Wind** | Luminosity | Snow |
|---|---|---|---|---|---|---|---|
| 1777273534 | 21.67° C | 100% | 1012.7 hPa | 0 mm | - | - | - |
| 1777273234 | 21.11° C | 100% | 1012.7 hPa | 0 mm | - | - | - |
| 1777272934 | 21.11° C | 100% | 1012.7 hPa | 0 mm | - | - | - |
| 1777272634 | 21.67° C | 100% | 1012.8 hPa | 0 mm | - | - | - |
| 1777272334 | 21.11° C | 100% | 1012.8 hPa | 0 mm | - | - | - |
| 1777272034 | 22.78° C | 100% | 1012.8 hPa | 0 mm | - | - | - |
| 1777271734 | 22.22° C | 100% | 1012.9 hPa | 0 mm | - | - | - |
| 1777271435 | 21.67° C | 100% | 1012.9 hPa | 0 mm | - | - | - |
| 1777271135 | 21.67° C | 100% | 1013.1 hPa | 0 mm | - | - | - |
| 1777270835 | 21.11° C | 100% | 1013.1 hPa | 0 mm | - | - | - |
| 1777270535 | 21.11° C | 100% | 1013 hPa | 0 mm | - | - | - |
| 1777270235 | 21.67° C | 100% | 1013.1 hPa | 0 mm | - | - | - |
| 1777269935 | 22.78° C | 100% | 1013.2 hPa | 0 mm | - | - | - |
| 1777269713 | 22.78° C | 100% | 1013.2 hPa | 0 mm | - | - | - |
| 1777269635 | 22.22° C | 100% | 1013.2 hPa | 0 mm | - | - | - |
| 1777269335 | 22.22° C | 100% | 1013.2 hPa | 0 mm | - | - | - |
| 1777269035 | 22.78° C | 100% | 1013.2 hPa | 0 mm | - | - | - |
| 1777268735 | 22.22° C | 100% | 1013.3 hPa | 0 mm | - | - | - |
| 1777268435 | 22.78° C | 100% | 1013.4 hPa | 0 mm | - | - | - |
| 1777268135 | 22.22° C | 100% | 1013.4 hPa | 0 mm | - | - | - |
| 1777267835 | 22.78° C | 100% | 1013.4 hPa | 0 mm | - | - | - |
| 1777267675 | 21.67° C | 100% | 1013.6 hPa | 0 mm | - | - | - |
| 1777267535 | 21.11° C | 100% | 1013.6 hPa | 0 mm | - | - | - |
| 1777267235 | 21.67° C | 100% | 1013.6 hPa | 0 mm | - | - | - |
| 1777266935 | 22.22° C | 100% | 1013.8 hPa | 0 mm | - | - | - |
* Rain latest hour (hover to see other rain measurements)
** Current wind speed in m/s (hover to see current wind gust speed)